Time,TemperatureF,DewpointF,PressureIn,WindDirection,WindDirectionDegrees,WindSpeedMPH,WindSpeedGustMPH,Humidity,HourlyPrecipIn,Conditions,Clouds,dailyrainin,SolarRadiationWatts/m^2,SoftwareType,DateUTC
2013-06-12 00:12:00,66.0,47.0,-100.00,WSW,245,5.0,10.0,50,0.00,,,0.00,1.000000,,2013-06-12 07:12:00,
2013-06-12 00:22:00,66.0,47.0,-100.00,WSW,245,5.0,10.0,50,0.00,,,0.00,1.000000,,2013-06-12 07:22:00,
2013-06-12 00:33:00,66.0,47.0,-100.00,WSW,245,5.0,10.0,50,0.00,,,0.00,1.000000,,2013-06-12 07:33:00,
2013-06-12 00:43:00,66.0,47.0,-100.00,WSW,245,5.0,10.0,50,0.00,,,0.00,1.000000,,2013-06-12 07:43:00,
2013-06-12 01:12:00,61.0,55.0,-100.00,WSW,251,7.0,9.0,82,0.00,,,0.00,0.000000,,2013-06-12 08:12:00,
2013-06-12 01:22:00,61.0,55.0,-100.00,WSW,251,7.0,9.0,82,0.00,,,0.00,0.000000,,2013-06-12 08:22:00,
2013-06-12 01:33:00,61.0,55.0,-100.00,WSW,251,7.0,9.0,82,0.00,,,0.00,0.000000,,2013-06-12 08:33:00,
2013-06-12 01:43:00,61.0,55.0,-100.00,WSW,251,7.0,9.0,82,0.00,,,0.00,0.000000,,2013-06-12 08:43:00,
2013-06-12 02:11:00,59.0,52.0,-100.00,WSW,241,9.0,10.0,78,0.00,,,0.00,0.000000,,2013-06-12 09:11:00,
2013-06-12 02:22:00,59.0,52.0,-100.00,WSW,241,9.0,10.0,78,0.00,,,0.00,0.000000,,2013-06-12 09:22:00,
2013-06-12 02:33:00,59.0,52.0,-100.00,WSW,241,9.0,10.0,78,0.00,,,0.00,0.000000,,2013-06-12 09:33:00,
2013-06-12 02:42:00,59.0,52.0,-100.00,WSW,241,9.0,10.0,78,0.00,,,0.00,0.000000,,2013-06-12 09:42:00,
2013-06-12 03:12:00,56.0,-99.9,-100.00,WSW,245,5.0,10.0,-999,0.00,,,0.00,0.000000,,2013-06-12 10:12:00,
2013-06-12 03:23:00,56.0,-99.9,-100.00,WSW,245,5.0,10.0,-999,0.00,,,0.00,0.000000,,2013-06-12 10:23:00,
2013-06-12 03:33:00,56.0,-99.9,-100.00,WSW,245,5.0,10.0,-999,0.00,,,0.00,0.000000,,2013-06-12 10:33:00,
2013-06-12 03:43:00,56.0,-99.9,-100.00,WSW,245,5.0,10.0,-999,0.00,,,0.00,0.000000,,2013-06-12 10:43:00,
2013-06-12 04:12:00,57.0,55.0,-100.00,WSW,247,3.0,8.0,93,0.00,,,0.00,0.000000,,2013-06-12 11:12:00,
2013-06-12 04:24:00,57.0,55.0,-100.00,WSW,247,3.0,8.0,93,0.00,,,0.00,0.000000,,2013-06-12 11:24:00,
2013-06-12 04:33:00,57.0,55.0,-100.00,WSW,247,3.0,8.0,93,0.00,,,0.00,0.000000,,2013-06-12 11:33:00,
2013-06-12 04:43:00,57.0,55.0,-100.00,WSW,247,3.0,8.0,93,0.00,,,0.00,0.000000,,2013-06-12 11:43:00,
2013-06-12 05:11:00,57.0,56.0,-100.00,WSW,243,3.0,7.0,97,0.00,,,0.00,0.000000,,2013-06-12 12:11:00,
2013-06-12 05:23:00,57.0,56.0,-100.00,WSW,243,3.0,7.0,97,0.00,,,0.00,0.000000,,2013-06-12 12:23:00,
2013-06-12 05:33:00,57.0,56.0,-100.00,WSW,243,3.0,7.0,97,0.00,,,0.00,0.000000,,2013-06-12 12:33:00,
2013-06-12 05:42:00,57.0,56.0,-100.00,WSW,243,3.0,7.0,97,0.00,,,0.00,0.000000,,2013-06-12 12:42:00,
2013-06-12 06:22:00,58.0,56.0,-100.00,ENE,64,0.0,4.0,93,0.00,,,0.00,1.000000,,2013-06-12 13:22:00,
2013-06-12 06:32:00,58.0,56.0,-100.00,ENE,64,0.0,4.0,93,0.00,,,0.00,1.000000,,2013-06-12 13:32:00,
2013-06-12 06:43:00,58.0,56.0,-100.00,ENE,64,0.0,4.0,93,0.00,,,0.00,1.000000,,2013-06-12 13:43:00,
2013-06-12 07:11:00,59.0,55.0,-100.00,ESE,102,4.0,5.0,88,0.00,,,0.00,38.000000,,2013-06-12 14:11:00,
2013-06-12 07:23:00,59.0,55.0,-100.00,ESE,102,4.0,5.0,88,0.00,,,0.00,38.000000,,2013-06-12 14:23:00,
2013-06-12 07:33:00,59.0,55.0,-100.00,ESE,102,4.0,5.0,88,0.00,,,0.00,38.000000,,2013-06-12 14:33:00,
2013-06-12 07:43:00,59.0,55.0,-100.00,ESE,102,4.0,5.0,88,0.00,,,0.00,38.000000,,2013-06-12 14:43:00,
2013-06-12 08:12:00,55.0,52.0,-100.00,WSW,251,3.0,9.0,91,0.00,,,0.00,146.000000,,2013-06-12 15:12:00,
2013-06-12 08:23:00,55.0,52.0,-100.00,WSW,251,3.0,9.0,91,0.00,,,0.00,146.000000,,2013-06-12 15:23:00,
2013-06-12 08:32:00,55.0,52.0,-100.00,WSW,251,3.0,9.0,91,0.00,,,0.00,146.000000,,2013-06-12 15:32:00,
2013-06-12 08:43:00,55.0,52.0,-100.00,WSW,251,3.0,9.0,91,0.00,,,0.00,146.000000,,2013-06-12 15:43:00,
2013-06-12 09:11:00,57.0,56.0,-100.00,WSW,248,3.0,6.0,97,0.00,,,0.00,388.000000,,2013-06-12 16:11:00,
2013-06-12 09:21:00,57.0,56.0,-100.00,WSW,248,3.0,6.0,97,0.00,,,0.00,388.000000,,2013-06-12 16:21:00,
2013-06-12 09:32:00,57.0,56.0,-100.00,WSW,248,3.0,6.0,97,0.00,,,0.00,388.000000,,2013-06-12 16:32:00,
2013-06-12 09:43:00,57.0,56.0,-100.00,WSW,248,3.0,6.0,97,0.00,,,0.00,388.000000,,2013-06-12 16:43:00,
2013-06-12 10:11:00,59.0,57.0,-100.00,West,268,15.0,20.0,92,-99.99,,,0.00,618.000000,,2013-06-12 17:11:00,
2013-06-12 10:22:00,59.0,57.0,-100.00,West,268,15.0,20.0,92,-99.99,,,0.00,618.000000,,2013-06-12 17:22:00,
2013-06-12 11:12:00,63.0,57.0,-100.00,West,277,13.0,20.0,80,-99.99,,,0.00,802.000000,,2013-06-12 18:12:00,
2013-06-12 11:22:00,63.0,57.0,-100.00,West,277,13.0,20.0,80,-99.99,,,0.00,802.000000,,2013-06-12 18:22:00,
2013-06-12 11:32:00,63.0,57.0,-100.00,West,277,13.0,20.0,80,-99.99,,,0.00,802.000000,,2013-06-12 18:32:00,
2013-06-12 11:43:00,63.0,57.0,-100.00,West,277,13.0,20.0,80,-99.99,,,0.00,802.000000,,2013-06-12 18:43:00,
2013-06-12 12:11:00,67.0,56.0,-100.00,WNW,287,11.0,19.0,69,-99.99,,,0.00,912.000000,,2013-06-12 19:11:00,
2013-06-12 12:22:00,67.0,56.0,-100.00,WNW,287,11.0,19.0,69,-99.99,,,0.00,912.000000,,2013-06-12 19:22:00,
2013-06-12 12:32:00,67.0,56.0,-100.00,WNW,287,11.0,19.0,69,-99.99,,,0.00,912.000000,,2013-06-12 19:32:00,
2013-06-12 12:42:00,67.0,56.0,-100.00,WNW,287,11.0,19.0,69,-99.99,,,0.00,912.000000,,2013-06-12 19:42:00,
2013-06-12 13:11:00,71.0,58.0,-100.00,WNW,284,15.0,21.0,63,0.00,,,0.00,972.000000,,2013-06-12 20:11:00,
2013-06-12 13:21:00,71.0,58.0,-100.00,WNW,284,15.0,21.0,63,0.00,,,0.00,972.000000,,2013-06-12 20:21:00,
2013-06-12 13:32:00,71.0,58.0,-100.00,WNW,284,15.0,21.0,63,0.00,,,0.00,972.000000,,2013-06-12 20:32:00,
2013-06-12 13:42:00,71.0,58.0,-100.00,WNW,284,15.0,21.0,63,0.00,,,0.00,972.000000,,2013-06-12 20:42:00,
2013-06-12 14:11:00,69.0,57.0,-100.00,West,274,14.0,21.0,65,0.00,,,0.00,978.000000,,2013-06-12 21:11:00,
2013-06-12 14:21:00,69.0,57.0,-100.00,West,274,14.0,21.0,65,0.00,,,0.00,978.000000,,2013-06-12 21:21:00,
2013-06-12 14:33:00,69.0,57.0,-100.00,West,274,14.0,21.0,65,0.00,,,0.00,978.000000,,2013-06-12 21:33:00,
2013-06-12 14:43:00,69.0,57.0,-100.00,West,274,14.0,21.0,65,0.00,,,0.00,978.000000,,2013-06-12 21:43:00,
2013-06-12 15:11:00,73.0,57.0,-100.00,WNW,282,15.0,20.0,57,0.00,,,0.00,931.000000,,2013-06-12 22:11:00,
2013-06-12 15:22:00,73.0,57.0,-100.00,WNW,282,15.0,20.0,57,0.00,,,0.00,931.000000,,2013-06-12 22:22:00,
2013-06-12 15:32:00,73.0,57.0,-100.00,WNW,282,15.0,20.0,57,0.00,,,0.00,931.000000,,2013-06-12 22:32:00,
2013-06-12 15:43:00,73.0,57.0,-100.00,WNW,282,15.0,20.0,57,0.00,,,0.00,931.000000,,2013-06-12 22:43:00,
2013-06-12 16:11:00,75.0,55.0,-100.00,WNW,288,14.0,21.0,50,0.00,,,0.00,831.000000,,2013-06-12 23:11:00,
2013-06-12 16:22:00,75.0,55.0,-100.00,WNW,288,14.0,21.0,50,0.00,,,0.00,831.000000,,2013-06-12 23:22:00,
2013-06-12 16:32:00,75.0,55.0,-100.00,WNW,288,14.0,21.0,50,0.00,,,0.00,831.000000,,2013-06-12 23:32:00,
2013-06-12 16:42:00,75.0,55.0,-100.00,WNW,288,14.0,21.0,50,0.00,,,0.00,831.000000,,2013-06-12 23:42:00,
2013-06-12 17:11:00,74.0,55.0,-100.00,West,274,14.0,22.0,51,0.00,,,0.00,683.000000,,2013-06-13 00:11:00,
2013-06-12 17:22:00,74.0,55.0,-100.00,West,274,14.0,22.0,51,0.00,,,0.00,683.000000,,2013-06-13 00:22:00,
2013-06-12 17:32:00,74.0,55.0,-100.00,West,274,14.0,22.0,51,0.00,,,0.00,683.000000,,2013-06-13 00:32:00,
2013-06-12 17:42:00,74.0,55.0,-100.00,West,274,14.0,22.0,51,0.00,,,0.00,683.000000,,2013-06-13 00:42:00,
2013-06-12 18:12:00,69.0,55.0,-100.00,West,280,14.0,20.0,61,0.00,,,-99.99,503.000000,,2013-06-13 01:12:00,
2013-06-12 18:22:00,69.0,55.0,-100.00,West,280,14.0,20.0,61,0.00,,,-99.99,503.000000,,2013-06-13 01:22:00,
2013-06-12 18:32:00,69.0,55.0,-100.00,West,280,14.0,20.0,61,0.00,,,-99.99,503.000000,,2013-06-13 01:32:00,
2013-06-12 18:42:00,69.0,55.0,-100.00,West,280,14.0,20.0,61,0.00,,,-99.99,503.000000,,2013-06-13 01:42:00,
2013-06-12 19:11:00,66.0,53.0,-100.00,West,274,11.0,18.0,64,0.00,,,-99.99,296.000000,,2013-06-13 02:11:00,
2013-06-12 19:22:00,66.0,53.0,-100.00,West,274,11.0,18.0,64,0.00,,,-99.99,296.000000,,2013-06-13 02:22:00,
2013-06-12 19:33:00,66.0,53.0,-100.00,West,274,11.0,18.0,64,0.00,,,-99.99,296.000000,,2013-06-13 02:33:00,
2013-06-12 19:42:00,66.0,53.0,-100.00,West,274,11.0,18.0,64,0.00,,,-99.99,296.000000,,2013-06-13 02:42:00,
2013-06-12 20:11:00,61.0,55.0,-100.00,WSW,252,11.0,16.0,80,0.00,,,0.00,108.000000,,2013-06-13 03:11:00,
2013-06-12 20:22:00,61.0,55.0,-100.00,WSW,252,11.0,16.0,80,0.00,,,0.00,108.000000,,2013-06-13 03:22:00,
2013-06-12 20:33:00,61.0,55.0,-100.00,WSW,252,11.0,16.0,80,0.00,,,0.00,108.000000,,2013-06-13 03:33:00,
2013-06-12 20:42:00,61.0,55.0,-100.00,WSW,252,11.0,16.0,80,0.00,,,0.00,108.000000,,2013-06-13 03:42:00,
2013-06-12 21:11:00,56.0,54.0,-100.00,SW,229,5.0,14.0,93,0.00,,,0.00,5.000000,,2013-06-13 04:11:00,
2013-06-12 21:22:00,56.0,54.0,-100.00,SW,229,5.0,14.0,93,0.00,,,0.00,5.000000,,2013-06-13 04:22:00,
2013-06-12 21:32:00,56.0,54.0,-100.00,SW,229,5.0,14.0,93,0.00,,,0.00,5.000000,,2013-06-13 04:32:00,
2013-06-12 21:43:00,56.0,54.0,-100.00,SW,229,5.0,14.0,93,0.00,,,0.00,5.000000,,2013-06-13 04:43:00,
2013-06-12 22:11:00,55.0,54.0,-100.00,SW,235,7.0,12.0,97,0.00,,,0.00,0.000000,,2013-06-13 05:11:00,
2013-06-12 22:23:00,55.0,54.0,-100.00,SW,235,7.0,12.0,97,0.00,,,0.00,0.000000,,2013-06-13 05:23:00,
2013-06-12 22:33:00,55.0,54.0,-100.00,SW,235,7.0,12.0,97,0.00,,,0.00,0.000000,,2013-06-13 05:33:00,
2013-06-12 22:42:00,55.0,54.0,-100.00,SW,235,7.0,12.0,97,0.00,,,0.00,0.000000,,2013-06-13 05:42:00,
2013-06-12 23:12:00,54.0,-99.9,-100.00,WSW,254,4.0,14.0,-999,0.00,,,0.00,0.000000,,2013-06-13 06:12:00,
2013-06-12 23:22:00,54.0,-99.9,-100.00,WSW,254,4.0,14.0,-999,0.00,,,0.00,0.000000,,2013-06-13 06:22:00,
2013-06-12 23:33:00,54.0,-99.9,-100.00,WSW,254,4.0,14.0,-999,0.00,,,0.00,0.000000,,2013-06-13 06:33:00,
2013-06-12 23:44:00,54.0,-99.9,-100.00,WSW,254,4.0,14.0,-999,0.00,,,0.00,0.000000,,2013-06-13 06:44:00,